TimeMDT,TemperatureF,Dew PointF,Humidity,Sea Level PressureIn,VisibilityMPH,Wind Direction,Wind SpeedMPH,Gust SpeedMPH,PrecipitationIn,Events,Conditions,WindDirDegrees,DateUTC
12:53 AM,62.1,54.0,75,30.04,10.0,North,10.4,-,N/A,,Clear,10,2013-07-17 06:53:00
1:53 AM,59.0,54.0,83,30.04,10.0,West,4.6,-,N/A,,Clear,270,2013-07-17 07:53:00
2:53 AM,55.9,53.1,90,30.05,10.0,NW,6.9,-,N/A,,Clear,310,2013-07-17 08:53:00
3:53 AM,55.0,52.0,89,30.06,10.0,WNW,4.6,-,N/A,,Clear,300,2013-07-17 09:53:00
4:53 AM,54.0,52.0,93,30.07,10.0,WNW,3.5,-,N/A,,Clear,300,2013-07-17 10:53:00
5:53 AM,53.1,51.1,93,30.08,10.0,NW,5.8,-,N/A,,Clear,310,2013-07-17 11:53:00
6:53 AM,59.0,55.0,87,30.07,10.0,Calm,Calm,-,N/A,,Clear,0,2013-07-17 12:53:00
7:53 AM,64.9,57.0,75,30.06,10.0,Calm,Calm,-,N/A,,Clear,0,2013-07-17 13:53:00
8:53 AM,69.1,57.0,65,30.06,10.0,Calm,Calm,-,N/A,,Clear,0,2013-07-17 14:53:00
9:53 AM,72.0,55.0,55,30.06,10.0,Variable,3.5,-,N/A,,Clear,0,2013-07-17 15:53:00
10:53 AM,77.0,54.0,45,30.04,10.0,SE,3.5,-,N/A,,Clear,130,2013-07-17 16:53:00
11:53 AM,80.1,52.0,38,30.03,10.0,ESE,6.9,-,N/A,,Clear,110,2013-07-17 17:53:00
12:53 PM,84.0,48.9,29,30.01,10.0,Variable,4.6,-,N/A,,Clear,0,2013-07-17 18:53:00
1:53 PM,86.0,46.0,25,29.99,10.0,North,5.8,-,N/A,,Clear,10,2013-07-17 19:53:00
2:53 PM,89.1,44.1,21,29.98,10.0,North,6.9,-,N/A,,Clear,350,2013-07-17 20:53:00
3:53 PM,89.1,41.0,19,29.96,10.0,Calm,Calm,-,N/A,,Clear,0,2013-07-17 21:53:00
4:53 PM,90.0,42.1,19,29.94,10.0,SSE,6.9,-,N/A,,Clear,160,2013-07-17 22:53:00
5:53 PM,89.1,43.0,20,29.93,10.0,SE,5.8,-,N/A,,Clear,140,2013-07-17 23:53:00
6:53 PM,88.0,44.1,22,29.91,10.0,ENE,3.5,-,N/A,,Clear,70,2013-07-18 00:53:00
7:53 PM,86.0,43.0,22,29.90,10.0,ESE,6.9,-,N/A,,Clear,120,2013-07-18 01:53:00
8:53 PM,80.1,43.0,27,29.91,10.0,East,4.6,-,N/A,,Clear,100,2013-07-18 02:53:00
9:53 PM,73.9,46.0,37,29.94,10.0,ENE,5.8,-,N/A,,Clear,60,2013-07-18 03:53:00
10:53 PM,73.0,46.9,39,29.93,10.0,ENE,6.9,-,N/A,,Clear,60,2013-07-18 04:53:00
11:53 PM,64.0,51.1,63,29.94,10.0,Calm,Calm,-,N/A,,Clear,0,2013-07-18 05:53:00